| time (UTC) | temp F | wind direction | speed MPH | gust MPH | rain 1hr in | rain 24hr in | rain mn in | humidity % | barometer mb |
| 20260903093207 | 46 | 0.0 | 0.0 | 0.00 | 0.22 | 0.00 | 100 | 1011.8 | |
| 20260903092207 | 46 | 0.0 | 0.0 | 0.00 | 0.22 | 0.00 | 100 | 1012.0 | |
| 20260903091207 | 46 | 0.0 | 0.0 | 0.00 | 0.22 | 0.00 | 100 | 1012.0 | |
| 20260903090207 | 46 | 0.0 | 0.0 | 0.00 | 0.22 | 0.00 | 99 | 1011.9 | |
| 20260903085207 | 47 | 0.0 | 0.0 | 0.00 | 0.22 | 0.00 | 98 | 1011.9 | |
| 20260903084207 | 47 | 0.0 | 1.0 | 0.00 | 0.22 | 0.00 | 95 | 1011.9 | |
| 20260903083227 | 47 | 343 | 0.0 | 1.0 | 0.00 | 0.22 | 0.00 | 97 | 1011.9 |
| 20260903082208 | 47 | 0.0 | 0.0 | 0.00 | 0.22 | 0.00 | 96 | 1012.0 | |
| 20260903081207 | 49 | 199 | 1.0 | 3.0 | 0.00 | 0.22 | 0.00 | 91 | 1011.8 |
| 20260903080207 | 49 | 148 | 0.0 | 2.0 | 0.00 | 0.22 | 0.00 | 95 | 1011.8 |
| 20260903075207 | 50 | 0.0 | 1.0 | 0.00 | 0.22 | 0.00 | 94 | 1011.8 | |
| 20260903074228 | 50 | 7 | 0.0 | 3.0 | 0.00 | 0.22 | 0.00 | 92 | 1011.7 |
| 20260903073228 | 51 | 22 | 2.0 | 7.0 | 0.00 | 0.22 | 0.00 | 91 | 1011.8 |
| 20260903072207 | 50 | 359 | 1.0 | 3.0 | 0.00 | 0.22 | 0.00 | 97 | 1011.8 |
| 20260903071207 | 48 | 16 | 0.0 | 2.0 | 0.00 | 0.22 | 0.00 | 100 | 1011.5 |
| 20260903070207 | 48 | 215 | 0.0 | 3.0 | 0.00 | 0.22 | 0.00 | 100 | 1011.5 |
| 20260903065207 | 48 | 0.0 | 0.0 | 0.00 | 0.22 | 0.22 | 100 | 1011.4 | |
| 20260903064248 | 49 | 0.0 | 0.0 | 0.00 | 0.22 | 0.22 | 100 | 1011.4 | |
| 20260903063207 | 49 | 0.0 | 0.0 | 0.00 | 0.22 | 0.22 | 98 | 1011.4 | |
| 20260903062207 | 51 | 0.0 | 0.0 | 0.00 | 0.22 | 0.22 | 92 | 1011.1 | |
| 20260903061247 | 51 | 0.0 | 1.0 | 0.00 | 0.22 | 0.22 | 92 | 1011.1 | |
| 20260903060207 | 51 | 359 | 2.0 | 8.0 | 0.01 | 0.22 | 0.22 | 93 | 1011.2 |
| 20260903055207 | 50 | 272 | 1.0 | 3.0 | 0.01 | 0.22 | 0.22 | 100 | 1011.3 |
| 20260903054207 | 51 | 0.0 | 2.0 | 0.01 | 0.22 | 0.22 | 100 | 1011.1 | |
| 20260903053208 | 51 | 0.0 | 0.0 | 0.01 | 0.22 | 0.22 | 100 | 1010.8 | |
| 20260903052208 | 51 | 343 | 1.0 | 5.0 | 0.01 | 0.22 | 0.22 | 96 | 1011.3 |
| 20260903051208 | 51 | 0.0 | 0.0 | 0.01 | 0.22 | 0.22 | 100 | 1011.4 | |
| 20260903050208 | 51 | 0.0 | 0.0 | 0.00 | 0.21 | 0.21 | 100 | 1011.2 | |
| 20260903045207 | 51 | 0.0 | 0.0 | 0.01 | 0.21 | 0.21 | 100 | 1011.2 | |
| 20260903044328 | 51 | 0.0 | 1.0 | 0.02 | 0.21 | 0.21 | 99 | 1011.0 | |
| 20260903043228 | 51 | 0.0 | 0.0 | 0.02 | 0.21 | 0.21 | 99 | 1010.8 | |
| 20260903042209 | 51 | 0.0 | 0.0 | 0.03 | 0.21 | 0.21 | 97 | 1010.6 | |
| 20260903041227 | 52 | 169 | 0.0 | 2.0 | 0.04 | 0.21 | 0.21 | 95 | 1010.2 |
| 20260903040207 | 51 | 90 | 1.0 | 3.0 | 0.05 | 0.21 | 0.21 | 96 | 1010.3 |
| 20260903035208 | 52 | 100 | 1.0 | 3.0 | 0.05 | 0.20 | 0.20 | 95 | 1010.1 |
| 20260903034247 | 53 | 179 | 3.0 | 7.0 | 0.05 | 0.19 | 0.19 | 90 | 1010.0 |
| 20260903033228 | 53 | 177 | 2.0 | 5.0 | 0.06 | 0.19 | 0.19 | 90 | 1009.8 |
| 20260903032207 | 53 | 168 | 4.0 | 8.0 | 0.06 | 0.18 | 0.18 | 89 | 1009.9 |
| 20260903031208 | 51 | 176 | 3.0 | 8.0 | 0.06 | 0.17 | 0.17 | 94 | 1009.9 |
| 20260903030208 | 50 | 166 | 0.0 | 3.0 | 0.06 | 0.16 | 0.16 | 97 | 1009.8 |
| 20260903025208 | 52 | 180 | 2.0 | 7.0 | 0.05 | 0.15 | 0.15 | 91 | 1009.8 |
| 20260903024208 | 51 | 199 | 1.0 | 6.0 | 0.05 | 0.14 | 0.14 | 99 | 1009.9 |
| 20260903023228 | 51 | 112 | 1.0 | 3.0 | 0.04 | 0.13 | 0.13 | 100 | 1009.9 |
| 20260903022208 | 51 | 113 | 3.0 | 9.0 | 0.04 | 0.12 | 0.12 | 100 | 1010.1 |
| 20260903021228 | 51 | 117 | 4.0 | 8.0 | 0.03 | 0.11 | 0.11 | 100 | 1010.6 |
| 20260903020213 | 51 | 0.0 | 0.0 | 0.02 | 0.10 | 0.10 | 100 | 1010.4 | |
| 20260903002710 | 56 | 304 | 0.0 | 2.0 | 0.01 | 0.06 | 0.06 | 95 | 1010.3 |
| 20260903001708 | 57 | 184 | 3.0 | 8.0 | 0.01 | 0.06 | 0.06 | 90 | 1010.2 |
| 20260903000708 | 57 | 269 | 4.0 | 7.0 | 0.01 | 0.06 | 0.06 | 88 | 1010.0 |
| 20260902235708 | 59 | 132 | 7.0 | 12.0 | 0.00 | 0.05 | 0.05 | 81 | 1009.8 |
| 20260902234748 | 59 | 130 | 6.0 | 10.0 | 0.00 | 0.05 | 0.05 | 78 | 1009.6 |
| 20260902233708 | 59 | 85 | 6.0 | 11.0 | 0.00 | 0.05 | 0.05 | 78 | 1009.6 |
| 20260902232708 | 59 | 81 | 10.0 | 16.0 | 0.00 | 0.05 | 0.05 | 78 | 1009.6 |
| 20260902231708 | 59 | 116 | 9.0 | 16.0 | 0.00 | 0.05 | 0.05 | 78 | 1009.5 |
| 20260902230708 | 58 | 120 | 10.0 | 14.0 | 0.00 | 0.05 | 0.05 | 79 | 1009.6 |
| 20260902225708 | 58 | 99 | 9.0 | 15.0 | 0.00 | 0.05 | 0.05 | 79 | 1009.6 |
| 20260902224708 | 58 | 141 | 8.0 | 11.0 | 0.00 | 0.05 | 0.05 | 80 | 1009.6 |
| 20260902223708 | 58 | 73 | 10.0 | 16.0 | 0.00 | 0.05 | 0.05 | 78 | 1009.5 |
| 20260902222708 | 58 | 106 | 8.0 | 14.0 | 0.00 | 0.05 | 0.05 | 78 | 1009.5 |
| 20260902221708 | 58 | 99 | 8.0 | 16.0 | 0.00 | 0.05 | 0.05 | 78 | 1009.5 |
| 20260902220708 | 58 | 143 | 9.0 | 16.0 | 0.00 | 0.05 | 0.05 | 80 | 1009.5 |
| 20260902215708 | 57 | 49 | 9.0 | 13.0 | 0.00 | 0.05 | 0.05 | 81 | 1009.7 |
| 20260902214708 | 56 | 127 | 5.0 | 10.0 | 0.00 | 0.05 | 0.05 | 87 | 1009.7 |
| 20260902213708 | 56 | 98 | 4.0 | 7.0 | 0.00 | 0.05 | 0.05 | 88 | 1009.8 |
| 20260902212708 | 56 | 143 | 7.0 | 12.0 | 0.01 | 0.05 | 0.05 | 82 | 1009.8 |
| 20260902211728 | 56 | 82 | 10.0 | 17.0 | 0.01 | 0.05 | 0.05 | 82 | 1009.8 |
| 20260902210708 | 56 | 54 | 9.0 | 13.0 | 0.01 | 0.05 | 0.05 | 84 | 1009.9 |
| 20260902205708 | 55 | 43 | 8.0 | 13.0 | 0.01 | 0.05 | 0.05 | 85 | 1010.0 |
| 20260902204729 | 56 | 97 | 12.0 | 18.0 | 0.01 | 0.05 | 0.05 | 83 | 1010.1 |
| 20260902203708 | 56 | 80 | 9.0 | 17.0 | 0.01 | 0.05 | 0.05 | 86 | 1010.0 |
| 20260902202708 | 56 | 60 | 11.0 | 17.0 | 0.02 | 0.04 | 0.04 | 83 | 1010.1 |
| 20260902201708 | 56 | 128 | 8.0 | 15.0 | 0.03 | 0.04 | 0.04 | 87 | 1010.1 |
| 20260902200708 | 56 | 74 | 6.0 | 9.0 | 0.04 | 0.04 | 0.04 | 87 | 1010.0 |
| 20260902195708 | 55 | 165 | 8.0 | 11.0 | 0.04 | 0.04 | 0.04 | 88 | 1010.2 |
| 20260902194708 | 55 | 172 | 8.0 | 12.0 | 0.04 | 0.04 | 0.04 | 87 | 1010.3 |
| 20260902193709 | 55 | 56 | 8.0 | 13.0 | 0.04 | 0.04 | 0.04 | 88 | 1010.3 |
| 20260902192809 | 56 | 105 | 10.0 | 13.0 | 0.02 | 0.02 | 0.02 | 85 | 1010.3 |
| 20260902191708 | 56 | 90 | 8.0 | 13.0 | 0.01 | 0.01 | 0.01 | 83 | 1010.2 |
| 20260902190709 | 58 | 72 | 6.0 | 10.0 | 0.00 | 0.00 | 0.00 | 79 | 1010.0 |
| 20260902185708 | 59 | 122 | 6.0 | 10.0 | 0.00 | 0.00 | 0.00 | 73 | 1010.0 |
| 20260902184729 | 60 | 151 | 7.0 | 11.0 | 0.00 | 0.00 | 0.00 | 70 | 1009.8 |
| 20260902183709 | 61 | 130 | 10.0 | 15.0 | 0.00 | 0.00 | 0.00 | 62 | 1009.8 |
| 20260902182708 | 61 | 96 | 11.0 | 18.0 | 0.00 | 0.00 | 0.00 | 62 | 1009.7 |
| 20260902181728 | 61 | 114 | 8.0 | 12.0 | 0.00 | 0.00 | 0.00 | 63 | 1009.6 |
| 20260902180709 | 61 | 105 | 10.0 | 14.0 | 0.00 | 0.00 | 0.00 | 64 | 1009.7 |
| 20260902175708 | 61 | 118 | 10.0 | 16.0 | 0.00 | 0.00 | 0.00 | 63 | 1009.7 |
| 20260902174709 | 61 | 108 | 10.0 | 16.0 | 0.00 | 0.00 | 0.00 | 63 | 1009.7 |
| 20260902173708 | 61 | 122 | 9.0 | 15.0 | 0.00 | 0.00 | 0.00 | 63 | 1009.7 |
| 20260902172708 | 61 | 82 | 10.0 | 16.0 | 0.00 | 0.00 | 0.00 | 63 | 1009.8 |
| 20260902171709 | 61 | 67 | 12.0 | 18.0 | 0.00 | 0.00 | 0.00 | 63 | 1009.7 |
| 20260902170709 | 63 | 125 | 10.0 | 14.0 | 0.00 | 0.00 | 0.00 | 62 | 1009.6 |
| 20260902165728 | 62 | 120 | 9.0 | 15.0 | 0.00 | 0.00 | 0.00 | 64 | 1009.6 |
| 20260902164710 | 62 | 72 | 10.0 | 15.0 | 0.00 | 0.00 | 0.00 | 64 | 1009.7 |
| 20260902163708 | 61 | 64 | 8.0 | 12.0 | 0.00 | 0.00 | 0.00 | 67 | 1009.7 |
| 20260902162728 | 61 | 70 | 10.0 | 16.0 | 0.00 | 0.00 | 0.00 | 67 | 1009.8 |
| 20260902161709 | 61 | 44 | 9.0 | 14.0 | 0.00 | 0.00 | 0.00 | 67 | 1009.8 |
| 20260902160709 | 61 | 63 | 9.0 | 15.0 | 0.00 | 0.00 | 0.00 | 68 | 1009.9 |
| 20260902155852 | 61 | 50 | 9.0 | 13.0 | 0.00 | 0.00 | 0.00 | 69 | 1009.9 |
| 20260902154708 | 60 | 74 | 6.0 | 10.0 | 0.00 | 0.00 | 0.00 | 71 | 1010.0 |
| 20260902153709 | 59 | 67 | 5.0 | 9.0 | 0.00 | 0.00 | 0.00 | 73 | 1010.1 |
| 20260902152709 | 58 | 124 | 4.0 | 9.0 | 0.00 | 0.00 | 0.00 | 77 | 1010.4 |
| 20260902151711 | 56 | 122 | 4.0 | 7.0 | 0.00 | 0.00 | 0.00 | 80 | 1010.6 |
| 20260902150708 | 55 | 154 | 3.0 | 5.0 | 0.00 | 0.00 | 0.00 | 83 | 1010.6 |
| 20260902145748 | 55 | 83 | 5.0 | 7.0 | 0.00 | 0.00 | 0.00 | 84 | 1010.7 |
| 20260902144712 | 54 | 136 | 3.0 | 5.0 | 0.00 | 0.00 | 0.00 | 85 | 1010.7 |
| 20260902143709 | 55 | 176 | 4.0 | 7.0 | 0.00 | 0.00 | 0.00 | 83 | 1010.8 |
| 20260902142709 | 55 | 71 | 2.0 | 4.0 | 0.00 | 0.00 | 0.00 | 83 | 1010.8 |
| 20260902141709 | 54 | 161 | 1.0 | 4.0 | 0.00 | 0.00 | 0.00 | 85 | 1010.8 |
| 20260902140708 | 52 | 181 | 1.0 | 4.0 | 0.00 | 0.00 | 0.00 | 90 | 1010.9 |
| 20260902135708 | 51 | 0.0 | 0.0 | 0.00 | 0.00 | 0.00 | 92 | 1010.9 | |
| 20260902134709 | 51 | 0.0 | 0.0 | 0.00 | 0.00 | 0.00 | 91 | 1011.0 | |
| 20260902133729 | 51 | 0.0 | 0.0 | 0.00 | 0.00 | 0.00 | 91 | 1010.9 | |
| 20260902132709 | 51 | 0.0 | 0.0 | 0.00 | 0.00 | 0.00 | 92 | 1011.0 | |
| 20260902131709 | 51 | 201 | 0.0 | 2.0 | 0.00 | 0.00 | 0.00 | 93 | 1011.3 |
| 20260902130709 | 50 | 0.0 | 1.0 | 0.00 | 0.00 | 0.00 | 93 | 1011.4 | |
| 20260902125729 | 50 | 0.0 | 1.0 | 0.00 | 0.00 | 0.00 | 93 | 1011.5 | |
| 20260902124709 | 50 | 200 | 0.0 | 2.0 | 0.00 | 0.00 | 0.00 | 93 | 1011.5 |
| 20260902123709 | 50 | 219 | 0.0 | 2.0 | 0.00 | 0.00 | 0.00 | 92 | 1011.5 |
| 20260902122749 | 50 | 0.0 | 0.0 | 0.00 | 0.00 | 0.00 | 92 | 1011.5 | |
| 20260902121709 | 50 | 0.0 | 0.0 | 0.00 | 0.00 | 0.00 | 93 | 1011.6 | |
| 20260902120709 | 49 | 0.0 | 1.0 | 0.00 | 0.00 | 0.00 | 94 | 1011.7 | |
| 20260902115709 | 49 | 197 | 3.0 | 6.0 | 0.00 | 0.00 | 0.00 | 95 | 1012.0 |
| 20260902114709 | 49 | 209 | 2.0 | 3.0 | 0.00 | 0.00 | 0.00 | 94 | 1011.9 |
| 20260902113709 | 50 | 0.0 | 1.0 | 0.00 | 0.00 | 0.00 | 89 | 1011.8 | |
| 20260902112709 | 51 | 0.0 | 0.0 | 0.00 | 0.00 | 0.00 | 89 | 1011.7 | |
| 20260902111709 | 51 | 0.0 | 0.0 | 0.00 | 0.00 | 0.00 | 91 | 1011.8 | |
| 20260902110709 | 51 | 0.0 | 0.0 | 0.00 | 0.00 | 0.00 | 88 | 1012.0 | |
| 20260902105709 | 50 | 0.0 | 0.0 | 0.00 | 0.00 | 0.00 | 91 | 1012.1 | |
| 20260902104710 | 49 | 0.0 | 0.0 | 0.00 | 0.00 | 0.00 | 90 | 1012.2 | |
| 20260902103709 | 49 | 213 | 0.0 | 2.0 | 0.00 | 0.00 | 0.00 | 93 | 1012.2 |
| 20260902102709 | 48 | 0.0 | 0.0 | 0.00 | 0.00 | 0.00 | 93 | 1012.3 | |
| 20260902101709 | 47 | 0.0 | 0.0 | 0.00 | 0.00 | 0.00 | 95 | 1012.2 | |
| 20260902100709 | 47 | 0.0 | 0.0 | 0.00 | 0.00 | 0.00 | 95 | 1012.2 | |
| 20260902095709 | 47 | 0.0 | 0.0 | 0.00 | 0.00 | 0.00 | 94 | 1012.1 | |
| 20260902094709 | 48 | 0.0 | 0.0 | 0.00 | 0.00 | 0.00 | 92 | 1012.0 |